To NAV CANADA Home Page Login to a new session Search on AWWS site Feedback and Comments Disclaimer Vers la page française équivalente Tips FAQ What's new on the site To the Forecasts and Observations / NOTAM section To "File a Flight Plan" website Publications and other links Update of the User's profile FIC Telephone Numbers My Weather Data Folder Route Weather Data Regional Weather Data Local Weather Data To the Forecasts and Observations / NOTAM section
Request Generated 04/28/2015 at 00:32:14 UTC . Weather information available at that time is displayed.

METAR/TAF

HOPE/BC    (show WxCam)

METAR CYHE 280000Z AUTO 26007KT 9SM FEW090 20/11 A3008 RMK SLP187
DENSITY ALT 500FT=
METAR CYHE 272300Z AUTO 27007KT 9SM SCT090 19/11 A3012 RMK SLP199
DENSITY ALT 400FT=
METAR CYHE 272200Z AUTO 27006KT 200V310 9SM FEW090 18/10 A3016 RMK
SLP212 DENSITY ALT 200FT=

CYHE - No TAF is issued for this station

Your time UTC time
Weather data provided by Environment Canada and NAV CANADA